Weather History for KAOH - May, 2013

Change the Weather History Date:

Wednesday, May 22, 2013

  Actual Average (KFDY) Record (KFDY)
Temperature  
Mean Temperature 74 °F -  
Max Temperature 82 °F 71 °F 90 °F (1964)
Min Temperature 66 °F 51 °F 36 °F (1961)
Cooling Degree Days 8    
Growing Degree Days 24 (Base 50)    
Moisture  
Dew Point 59 °F    
Average Humidity 63    
Maximum Humidity 78    
Minimum Humidity 45    
Precipitation  
Precipitation 0.01 in - - ()
Sea Level Pressure  
Sea Level Pressure 29.75 in    
Wind  
Wind Speed 11 mph (SSW)    
Max Wind Speed 21 mph    
Max Gust Speed 31 mph    
Visibility 10 miles    
Events      
Averages and records for this station are not official NWS values.
T = Trace of Precipitation, MM = Missing Value Source: NWS Daily Summary

Daily Weather History Graph

Daily Weather History Graph

Search for Another Location

Airport or City:

Trip Planner

Search our weather history database for the weather conditions in past years. The results will help you decide how hot, cold, wet, or windy it might be!

Date:

Astronomy

May. 22, 2013 Rise Set
Actual Time 6:12 AM EDT 8:53 PM EDT
Civil Twilight 5:41 AM EDT 9:25 PM EDT
Nautical Twilight 5:01 AM EDT 10:04 PM EDT
Astronomical Twilight 4:16 AM EDT 10:50 PM EDT
Moon 6:13 PM EDT (5/22) 4:17 AM EDT (5/22)
Length of Visible Light 15h 43m
Length of Day
14h 40m
Waxing Gibbous, 91% of the Moon is Illuminated
May 22
Waxing Gibbous
May 25
Full
May 31
Last Quarter
Jun 8
New
Jun 16
First Quarter

Hourly Weather History & Observations

Time (EDT) Temp. Heat Index Dew Point Humidity Pressure Visibility Wind Dir Wind Speed Gust Speed Precip Events Conditions
12:53 AM 73.0 °F - 60.1 °F 64% 29.80 in 10.0 mi SSW 8.1 mph - N/A   Clear
1:53 AM 72.0 °F - 61.0 °F 68% 29.78 in 10.0 mi SSW 8.1 mph - N/A   Clear
2:53 AM 70.0 °F - 60.1 °F 71% 29.77 in 10.0 mi South 8.1 mph - N/A   Clear
3:53 AM 69.1 °F - 59.0 °F 70% 29.76 in 10.0 mi South 10.4 mph - N/A   Mostly Cloudy
4:53 AM 68.0 °F - 60.1 °F 76% 29.76 in 10.0 mi South 10.4 mph - N/A   Clear
5:53 AM 68.0 °F - 60.1 °F 76% 29.76 in 10.0 mi SSW 10.4 mph - N/A   Mostly Cloudy
6:53 AM 68.0 °F - 60.1 °F 76% 29.78 in 10.0 mi South 11.5 mph - N/A   Overcast
7:53 AM 68.0 °F - 61.0 °F 78% 29.78 in 10.0 mi South 6.9 mph - 0.00 in   Mostly Cloudy
8:53 AM 71.1 °F - 62.1 °F 73% 29.77 in 10.0 mi South 9.2 mph - N/A   Overcast
9:53 AM 73.0 °F - 61.0 °F 66% 29.76 in 10.0 mi South 11.5 mph 19.6 mph N/A   Overcast
10:53 AM 71.1 °F - 61.0 °F 70% 29.76 in 10.0 mi SW 6.9 mph - 0.00 in   Overcast
11:15 AM 73.4 °F - 60.8 °F 65% 29.78 in 10.0 mi South 12.7 mph - N/A   Overcast
11:53 AM 73.0 °F - 60.1 °F 64% 29.76 in 10.0 mi SSW 15.0 mph 24.2 mph N/A   Overcast
12:53 PM 77.0 °F - 59.0 °F 54% 29.75 in 10.0 mi SSW 17.3 mph 27.6 mph N/A   Scattered Clouds
1:53 PM 80.1 °F 80.7 °F 59.0 °F 48% 29.73 in 10.0 mi South 17.3 mph 31.1 mph N/A   Mostly Cloudy
2:53 PM 79.0 °F - 57.0 °F 47% 29.72 in 10.0 mi South 16.1 mph 26.5 mph N/A   Mostly Cloudy
3:53 PM 81.0 °F 81.1 °F 57.9 °F 45% 29.71 in 10.0 mi SW 18.4 mph 29.9 mph 0.00 in   Mostly Cloudy
4:53 PM 77.0 °F - 59.0 °F 54% 29.71 in 10.0 mi SW 20.7 mph 31.1 mph 0.01 in   Mostly Cloudy
5:53 PM 78.1 °F - 59.0 °F 52% 29.70 in 10.0 mi WSW 19.6 mph 27.6 mph N/A   Mostly Cloudy
6:53 PM 75.9 °F - 57.9 °F 54% 29.70 in 10.0 mi SW 13.8 mph 27.6 mph N/A   Partly Cloudy
7:53 PM 75.9 °F - 55.9 °F 50% 29.71 in 10.0 mi SW 15.0 mph 25.3 mph N/A   Clear
8:53 PM 72.0 °F - 55.0 °F 55% 29.74 in 10.0 mi West 17.3 mph - N/A   Mostly Cloudy
9:53 PM 68.0 °F - 55.9 °F 65% 29.74 in 10.0 mi West 8.1 mph - N/A   Clear
10:53 PM 66.9 °F - 55.0 °F 66% 29.75 in 10.0 mi SW 5.8 mph - N/A   Clear
11:53 PM 66.0 °F - 55.0 °F 68% 29.76 in 10.0 mi SW 6.9 mph - N/A   Mostly Cloudy